Location: Antioch
(38.0049°N, 121.8058°W)
Time: 13:02:09
(UTC+00:00)

Cosmos 2219 - Pass Details

Date: 11 February 2026
Orbit: 832 x 859 km, 71.1° (Epoch: 17 March)

Event Time Altitude Azimuth Distance (km) Brightness Sun altitude
Rises 13:57:32 0° 341° (NNW) 3,433 6.1 -13.2°
Reaches altitude 10° 14:00:04 10° 346° (NNW) 2,490 5.4 -12.7°
Maximum altitude 14:05:42 58° 65° (ENE) 987 3.9 -11.6°
Drops below altitude 10° 14:11:15 10° 144° (SE) 2,459 6.3 -10.5°
Sets 14:13:43 0° 148° (SSE) 3,386 7.0 -10.0°
